30.06.2024;16:00;3
30.06.2024;15:00;3
30.06.2024;14:00;4
30.06.2024;13:00;2
30.06.2024;12:00;2
30.06.2024;11:00;2
30.06.2024;10:00;2
30.06.2024;09:00;2
30.06.2024;08:00;5
30.06.2024;07:00;3
30.06.2024;06:00;4
30.06.2024;05:00;6
30.06.2024;04:00;6
30.06.2024;03:00;6
30.06.2024;02:00;9
30.06.2024;01:00;9
30.06.2024;00:00;10
29.06.2024;23:00;13
29.06.2024;22:00;22
29.06.2024;21:00;25
29.06.2024;20:00;19
29.06.2024;19:00;6
29.06.2024;18:00;16
29.06.2024;17:00;16
29.06.2024;16:00;15
29.06.2024;15:00;14
29.06.2024;14:00;8
29.06.2024;13:00;8
29.06.2024;12:00;7
29.06.2024;11:00;10
29.06.2024;10:00;9
29.06.2024;09:00;10
29.06.2024;08:00;15
29.06.2024;07:00;9
29.06.2024;06:00;9
29.06.2024;05:00;8
29.06.2024;04:00;6
29.06.2024;03:00;7
29.06.2024;02:00;8
29.06.2024;01:00;13
29.06.2024;00:00;17
28.06.2024;23:00;15
28.06.2024;22:00;26
28.06.2024;21:00;16
28.06.2024;20:00;7
28.06.2024;19:00;9
28.06.2024;18:00;14
28.06.2024;17:00;5
